Jordan, MT

6:47 AM MDT on April 23, 2018 (GMT -0600)
Jordan

Weather History for KJDN - January, 2013

Change the Weather History Date:

Friday, January 25, 2013

  Actual Average Record
Temperature  
Mean Temperature 33 °F 18 °F  
Max Temperature 53 °F 30 °F 60 °F (2007)
Min Temperature 13 °F 7 °F -46 °F (1969)
Degree Days  
Heating Degree Days 32 47  
Month to date heating degree days 1120 1202  
Since 1 July heating degree days 4219 4652  
Cooling Degree Days 0 0  
Month to date cooling degree days 0 0  
Year to date cooling degree days 0 0  
Moisture  
Dew Point 22 °F    
Average Humidity 65    
Maximum Humidity 92    
Minimum Humidity 38    
Precipitation  
Precipitation 0.00 in 0.01 in 0.38 in (1918)
Month to date precipitation 0.26 0.20  
Year to date precipitation 0.26 0.20  
Snow  
Snow 0.00 in - - ()
Month to date snowfall 0.0  
Since 1 July snowfall 0.0  
Snow Depth 0.00 in    
Sea Level Pressure  
Sea Level Pressure 30.05 in    
Wind  
Wind Speed 3 mph (SW)    
Max Wind Speed 13 mph    
Max Gust Speed 17 mph    
T = Trace of Precipitation, MM = Missing Value Source: NWS Daily Summary

Daily Weather History Graph

Daily Weather History Graph

Search for Another Location

Airport or City:

Astronomy

Jan. 25, 2013 Rise Set
Actual Time 7:41 AM MST 4:59 PM MST
Civil Twilight 7:07 AM MST 5:32 PM MST
Nautical Twilight 6:30 AM MST 6:10 PM MST
Astronomical Twilight 5:54 AM MST 6:46 PM MST
Moon 3:59 PM MST (1/25) 6:23 AM MST (1/25)
Length of Visible Light 10h 25m
Length of Day
9h 18m
Waxing Gibbous, 98% of the Moon is Illuminated
Jan 25
Waxing Gibbous
Jan 26
Full
Feb 3
Last Quarter
Feb 10
New
Feb 17
First Quarter

Hourly Weather History & Observations

Time (MST) Temp. Windchill Dew Point Humidity Pressure Visibility Wind Dir Wind Speed Gust Speed Precip Events Conditions
12:48 AM 16.0 °F - 14.0 °F 92% 30.14 in - Calm Calm - N/A   Unknown
1:48 AM 17.1 °F 8.7 °F 14.0 °F 88% 30.13 in - WNW 5.8 mph - N/A   Unknown
2:48 AM 16.0 °F - 12.9 °F 88% 30.13 in - Calm Calm - N/A   Unknown
3:48 AM 17.1 °F - 12.9 °F 84% 30.12 in - Calm Calm - N/A   Unknown
4:48 AM 16.0 °F - 12.9 °F 88% 30.10 in - Calm Calm - N/A   Unknown
5:48 AM 15.1 °F - 10.9 °F 84% 30.12 in - Calm Calm - N/A   Unknown
6:48 AM 14.0 °F - 10.9 °F 88% 30.12 in - Calm Calm - N/A   Unknown
7:48 AM 12.9 °F 6.9 °F 10.0 °F 88% 30.13 in - WNW 3.5 mph - N/A   Unknown
8:48 AM 17.1 °F - 15.1 °F 92% 30.13 in - Calm Calm - N/A   Unknown
9:48 AM 26.1 °F - 21.0 °F 81% 30.11 in - Calm Calm - N/A   Unknown
10:48 AM 35.1 °F - 26.1 °F 70% 30.09 in - Calm Calm - N/A   Unknown
11:48 AM 43.0 °F - 27.0 °F 53% 30.06 in - Calm Calm - N/A   Unknown
12:48 PM 48.9 °F - 27.0 °F 43% 30.03 in - SW 4.6 mph - N/A   Unknown
1:48 PM 52.0 °F - 26.1 °F 37% 29.99 in - SSW 4.6 mph - N/A   Unknown
2:48 PM 52.0 °F - 28.0 °F 40% 29.99 in - West 9.2 mph - N/A   Unknown
3:48 PM 50.0 °F - 30.0 °F 46% 29.99 in - SSW 3.5 mph - N/A   Unknown
4:48 PM 39.9 °F 33.9 °F 28.9 °F 65% 30.02 in - SSW 9.2 mph - N/A   Unknown
5:48 PM 37.9 °F 32.7 °F 28.9 °F 70% 30.01 in - Variable 6.9 mph - N/A   Unknown
6:48 PM 37.9 °F 32.1 °F 28.0 °F 68% 30.00 in - SW 8.1 mph - N/A   Unknown
7:48 PM 37.9 °F 35.5 °F 28.0 °F 68% 29.98 in - Variable 3.5 mph - N/A   Unknown
8:48 PM 39.0 °F 35.7 °F 28.0 °F 65% 29.97 in - Variable 4.6 mph - N/A   Unknown
9:48 PM 39.9 °F 36.7 °F 28.0 °F 63% 29.94 in - Variable 4.6 mph - N/A   Unknown
10:48 PM 36.0 °F - 28.0 °F 73% 29.93 in - Calm Calm - N/A   Unknown
11:48 PM 32.0 °F 28.7 °F 28.0 °F 85% 29.91 in - SSW 3.5 mph - N/A   Unknown